Timeline UpdatesTrip UpdatesNews PostsPvt PostsTravel TipsAdmin PostsConv PostsFollowed PostsChat RequestsBlog PostsPNR Posts

Disclaimer
Search
 
 
Mon Sep 22, 2014 01:39:54 ISTHomeTrainsΣChainsAtlasPNRForumGalleryNewsFAQTripsMembersLoginFeedback
No Recent News for this Train
Other Trains in the News **new
Latest...
One Sleeper and unreserved coach for Nandurbar from 59441 Mumbai Ahmedabad passenger is attached to this train at Surat.
Fri Feb 04, 2011 (12:38PM)
⇐ Return Journey: Train# 59076

59075/Surat - Bhusaval Passenger

Time-Table HAS CHANGED.
Sep 02 (12:28AM)
Change Departure Station:
Change Arrival Station:
Post a Train Travel TipPost a Train Travel Tip **new
Post a Comment/Question/Picture/VideoPost a Comment/Question/Picture/Video
Pantry/Catering
✕ NO Pantry Car
✓ Catering Avbl
RSA - Rake Sharing
Rake/Coach Composition
Loco
BSL WAM4.
News    PNR    Forum    Time-Table    Availability    Fare Chart    Map    Arr/Dep History    Trips    Gallery    ΣChains    X/O    Timeline    
Travel Time: 11h 29m    41 halts    Distance: 319 km    Avg Speed: 27 km/hr
Type: Passenger
Zone: WR/Western
Departs @ 07:51
Platform# 1
SMTWTFS
Chalthan/CHM 
Arrives @ 19:20
Platform# 1
SMTWTFS
Bhusaval Junction/BSL 

41 halts. 43 intermediate Stations between Chalthan and Bhusaval Junction

Show ALL intermediate Stations  Show Old Time-Table

#CodeStation NameX/OArrivesAvgDepartsAvgHaltPFDay#KmSpeedElevZoneAddress
1STSurat (4)  -07:20-41-15.53019mWRSurat 395001, Gujarat
2UDNUdhna Junction (3)O  07:28-07:30-2m31-11.53516mWRUdhna 394210, Gujarat
3NOLNiyol (1)  07:41-07:43-2m11-5.05018mWRSurat, Gujarat
4CHMChalthan (1)»  07:49-07:51-2m110.04423mWRKadodra, Gujarat
5BGMRBagumra (1)  07:58 07:57-07:59-1 2m--14.45122mWRNational Highway 6, Gujarat
6GGARGangadhara (1)X  08:05-08:07-2m119.52727mWRKareli, Gujarat
7BIYBardoli (2)X  08:21-08:23-2m--115.75135mWRNear Bardoli Sugar Factory Bardoli, Gujarat
8TBVTimbarva (1)  08:31-08:33-2m1122.54135mWRTimberva, Gujarat
9MGRLMangrolla (1)O  08:37-08:39-2m1125.24636mWRPipariya, Gujarat
10MIDMadhi (1)  08:46-08:48-2m1130.53645mWRMadhi, Gujarat
11KRAIKaher (1)O  08:57-08:59-2m1135.94655mWRKaher, Gujarat
12LTVLotarva (1)  09:03-09:05-2m1139.02657mWRSankr Main Rd, Gujarat
13VYAVyara (2)  09:20-09:22-2m2145.54990mWRVyara, Gujarat
14KKRDKikakui Road (1)  09:36-09:38-2m1157.038114mWRGujarat 394650 ?, Gujarat
15DSDDosvada (1)  09:42-09:44-2m1159.646121mWRNational Highway 6, Gujarat
16USDUkai Songadh (2)XO  09:50-09:52-2m1164.262139mWRSongadh, Gujarat
17LKKDLakkad Kot (1)  09:59-10:01-2m1171.437122mWRGujarat 394375 ?, Gujarat
18BBAIBhadbhunja (1)O  10:09-10:11-2m1176.333126mWRGujarat 394375 ?, Gujarat
19NWUNavapur (2)  10:31-10:33-2m--187.457124mWRNavapur, Gujarat
20KFFKolda (1)O  10:44-10:46-2m1197.848160mWRGangapur, Maharashtra
21CPDChinchpada (1)O  10:54-10:56-2m11104.159178mWRGangapur, Maharashtra
22KHTGKhatgaon (1)O  11:06-11:08-2m11113.928178mWRState Highway 5, Maharashtra
23KBHKhandbara (1)  11:27-11:29-2m11122.716198mWRKhandbara, Maharashtra
24DWDDhekwad (1)  12:20-12:22-2m11136.324209mWRState Highway 5, Maharashtra
25NDBNandurbar (3)XO  12:45-14:10 14:20-85 95m--1145.334203mWRNandurbar, Maharashtra
26CUEChoupale (1)  14:19 14:29-14:21 14:31-2m11150.552208mWRNehru Nagar, Maharashtra
27TISITisi (1)  14:30 14:40-14:32 14:42-2m11158.257185mWRState Highway 7, Maharashtra
28RNLRanala (1)X  14:45 14:52-14:47 14:54-2m11167.7120164mWRState Highway 6, Maharashtra
29DDEDondaicha (2)  15:00-15:02-2m11179.738163mWRDondaicha, Maharashtra
30VKHVikhran (1)  15:15-15:17-2m11187.941176mWRMSH1, Maharashtra
31SNSLSonshelu (1)  15:24-15:26-2m11192.732185mWRMSH1, Maharashtra
32SNKSindkheda (1)  15:38-15:40-2m11199.150178mWRState Highway 11, Maharashtra
33HOLHol (1)X  15:50-15:52-2m11207.425185mWRState Highway 6, Maharashtra
34NDNNardana (1)  16:04-16:06-2m11212.451184mWRNardana, Maharashtra
35BEWBetavad (1)  16:14-16:16-2m11219.156178mWRState Highway 6, Maharashtra
36PDPPadse  16:22-16:24-2m--1224.736181mWRDhule, Maharashtra
37BRTKBhortexX  16:37-16:39-2m--1232.615180mWRVadhoda, Maharashtra
38ANAmalner (2)X  17:12-17:15-3m11240.762188mWRAmalner, Maharashtra
39TKHETakarkhede (1)  17:26-17:28-2m11252.144203mWRState Highway 6, Maharashtra
40BHNEBhone (2)X  17:36-17:38-2m--1258.051196mWRState Highway 185, Maharashtra
41DXGDharangaon (2)  17:47-17:49-2m--1265.648217mWRDharangaon, Maharashtra
42CHLKChavalkhede  17:58-18:00-2m--1272.749196mWRState Highway 185, Maharashtra
43PLDPaldhi (2)  18:14-18:16-2m--1284.225208mWRPaldhi, Maharashtra
44JLJalgaon Junction (4)XO  18:43-18:45-2m41295.346213mCRJalgaon 425001, Maharashtra
45BDIBhadli (2)  19:00-19:02-2m--1306.842211mCRBhadli, Maharashtra
46BSLBhusaval Junction (8)•  19:20--11319.4-208mCRBhusaval 425201, Maharashtra
Scroll to Top
Scroll to Bottom